IUS R/B(2), 22316

Orbit data source: Space-Track

IUS R/B(2), 22316 is space debris in GEO originally from a launch on Wed, 13 Jan 1993 UTC launched from the Air Force Eastern Test Range (AFETR). Debris objects in space refer to the collection of defunct objects orbiting the Earth. Examples of debris include non-operational satellites, rocket bodies, and fragments generated from explosions, collisions, or faulty payload assembly.

Not visible in the next 10 days
Identifier
22316, 1993-003D
Orbit
GEO
Country
Flag of USUS
Related business
Manufacturer
UTC CSD
Mission
Spacecraft
Bus & Motor
ORBUS 6, Unknown motor
Mass
~1,100 kg wet, ~1,100 kg dry
Launch date (UTC)
1993-01-13 (33 years ago)
Launch vehicle
Unknown
Launch site
Air Force Eastern Test Range (AFETR)
Object type
Payload
Rocket body
Debris
Shape & HBR
Cyl, 1.4 m
Radar Cross Section
8.086 m², Large (>1 m²)

Expand to show TLE details & history
Last TLE update: 1 day ago

TLE from 1 day ago
0 IUS R/B(2)
1 22316U 93003D   25299.85751171 -.00000195  00000-0  00000-0 0  9997
2 22316  11.9966 345.8230 0067803 121.1595 326.9336  1.00094849124858
Epoch: 2025-10-26T20:34Z
TLE epoch observation values (Epoch: 2025-10-26T20:34:49.011Z)
Latitude
11.9953°
Longitude
89.24446°
Altitude
35,596.442 km
Speed
3.09 km/s
True Right ascension
04h 53m 39s
True Declination
11° 59' 00"
Sunlit
Object was in daylight at epoch
Visualization orbit readout
Latitude
Unknown
Longitude
Unknown
Altitude
Unknown
Speed
Unknown
Apparent Right ascension
Unknown
Apparent Declination
Unknown
Sunlit
N/A
Visualization observer readout
Local Sidereal Time
18:53:34
Azimuth
Unknown
Elevation
Unknown
Doppler factor
Unknown
Orbital elements
Apogee altitude
36,123.504 km
Perigee altitude
35,551.038 km
Semi-major axis
42,215.408 km
Eccentricity
0.00678
Inclination
11.9966°
RAAN
345.823°
Arg. of periapsis
121.1595°
True anomaly
326.50665°
Mean anomaly
326.9336°
Eccentric anomaly
326.72043°
Mean motion
0.25023 °/min
Orbital period
1,438.69 mins
BSTAR
0
Loading maneuver chart data...
Computing Atmospheric mass density...
Loading historical data...
Loading historical data...
Loading historical data...
Loading historical data...
Loading historical data...
Loading historical data...
Loading historical data...
Other satellites on launch #3 in the year 1993 (1993-01-13 UTC)

Documentation

Showing up to 5 results
|